FW5667 Weather Reports


Display with metric or nautical units.
time (UTC)temp
F
wind
direction
speed
MPH
gust
MPH
rain 1hr
in
rain 24hr
in
rain mn
in
humidity
%
barometer
mb
20201128162524 37 0 0.0 2.0 0.00 0.00 0.00 96 1026.2
20201128162026 37 0 0.0 2.0 0.00 0.00 0.00 96 1026.2
20201128161607 37 0 0.0 2.0 0.00 0.00 0.00 96 1026.1
20201128161025 37 151 0.0 2.0 0.00 0.00 0.00 96 1026.0
20201128160525 37 0 0.0 2.0 0.00 0.00 0.00 96 1026.0
20201128160100 37 151 0.0 2.0 0.00 0.00 0.00 96 1025.8
20201128155527 37 0 0.0 1.0 0.00 0.00 0.00 96 1025.9
20201128155031 37 0 0.0 1.0 0.00 0.00 0.00 96 1025.8
20201128154649 37 0 0.0 1.0 0.00 0.00 0.00 96 1025.6
20201128154028 37 0 0.0 1.0 0.00 0.00 0.00 96 1025.6
20201128153534 37 0 0.0 0.0 0.00 0.00 0.00 96 1025.5
20201128153042 37 0 0.0 0.0 0.00 0.00 0.00 96 1025.4
20201128152543 37 0 0.0 0.0 0.00 0.00 0.00 96 1025.3
20201128152032 37 0 0.0 0.0 0.00 0.00 0.00 96 1025.3
20201128151615 37 0 0.0 0.0 0.00 0.00 0.00 96 1025.2
20201128151028 37 0 0.0 0.0 0.00 0.00 0.00 96 1025.2
20201128150529 37 0 0.0 1.0 0.00 0.00 0.00 96 1025.1
20201128150046 37 0 0.0 2.0 0.00 0.00 0.00 96 1025.1
20201128145527 37 151 0.0 2.0 0.00 0.00 0.00 96 1025.2
20201128145033 37 0 0.0 2.0 0.00 0.00 0.00 96 1025.1
20201128144638 37 0 1.0 3.0 0.00 0.00 0.00 96 1025.1
20201128144029 37 0 0.0 4.0 0.00 0.00 0.00 96 1024.9
20201128143534 37 151 0.0 4.0 0.00 0.00 0.00 96 1025.0
20201128143056 37 151 1.0 4.0 0.00 0.00 0.00 96 1024.7
20201128142523 37 151 1.0 4.0 0.00 0.00 0.00 96 1024.7
20201128142031 37 151 1.0 4.0 0.00 0.00 0.00 96 1024.6
20201128141651 37 0 2.0 3.0 0.00 0.00 0.00 96 1024.6
20201128141027 37 150 1.0 3.0 0.00 0.00 0.00 96 1024.6
20201128140535 37 150 0.0 4.0 0.00 0.00 0.00 96 1024.6
20201128140100 37 150 1.0 4.0 0.00 0.00 0.00 96 1024.7
20201128135531 37 0 1.0 3.0 0.00 0.00 0.00 96 1024.5
20201128135037 37 108 2.0 3.0 0.00 0.00 0.00 96 1024.5
20201128134609 37 0 0.0 0.0 0.00 0.00 0.00 96 1024.7
20201128134030 37 0 0.0 2.0 0.00 0.00 0.00 96 1024.5
20201128133539 37 0 0.0 3.0 0.00 0.00 0.00 96 1024.4
20201128133109 36 137 0.0 3.0 0.00 0.00 0.00 96 1024.3
20201128132523 36 142 1.0 3.0 0.00 0.00 0.00 96 1024.2
20201128132042 36 198 1.0 2.0 0.00 0.00 0.00 96 1024.4
20201128131550 36 0 0.0 3.0 0.00 0.00 0.00 96 1024.7
20201128131030 36 244 1.0 6.0 0.00 0.00 0.00 96 1024.9
20201128130531 36 267 2.0 6.0 0.00 0.00 0.00 96 1024.9
20201128130044 36 275 2.0 3.0 0.00 0.00 0.00 96 1024.8
20201128125535 36 282 0.0 2.0 0.00 0.00 0.00 96 1024.6
20201128125033 36 0 0.0 2.0 0.00 0.00 0.00 96 1024.5
20201128124537 36 0 0.0 2.0 0.00 0.00 0.00 96 1024.3
20201128124026 36 119 0.0 2.0 0.00 0.00 0.00 96 1024.3
20201128123524 36 0 0.0 2.0 0.00 0.00 0.00 96 1024.3
20201128123046 36 0 1.0 2.0 0.00 0.00 0.00 96 1024.3
20201128122527 36 0 0.0 1.0 0.00 0.00 0.00 96 1024.1
20201128122024 36 0 0.0 1.0 0.00 0.00 0.00 96 1023.9
20201128121602 36 0 0.0 2.0 0.00 0.00 0.00 96 1024.0
20201128121024 36 0 0.0 3.0 0.00 0.00 0.00 96 1024.0
20201128120534 36 119 1.0 4.0 0.00 0.00 0.00 96 1024.1
20201128120109 36 0 0.0 4.0 0.00 0.00 0.00 96 1023.8
20201128115530 36 142 0.0 3.0 0.00 0.00 0.00 96 1023.6
20201128115247 36 0 0.0 3.0 0.00 0.00 0.00 96 1023.8
20201128114528 36 0 0.0 3.0 0.00 0.00 0.00 96 1024.0
20201128114021 36 142 1.0 3.0 0.00 0.00 0.00 96 1024.0
20201128113534 36 0 0.0 3.0 0.00 0.00 0.00 96 1023.9
20201128113116 36 0 1.0 3.0 0.00 0.00 0.00 96 1024.0
20201128112524 36 142 1.0 3.0 0.00 0.00 0.00 96 1023.9
20201128112029 36 0 0.0 0.0 0.00 0.00 0.00 96 1023.8
20201128111549 36 0 0.0 0.0 0.00 0.00 0.00 96 1023.8
20201128111024 36 0 0.0 0.0 0.00 0.00 0.00 96 1023.9
20201128110530 36 0 0.0 0.0 0.00 0.00 0.00 96 1023.9
20201128110104 36 0 0.0 2.0 0.00 0.00 0.00 96 1023.8
20201128105538 36 0 0.0 3.0 0.00 0.00 0.00 96 1024.0
20201128105025 36 0 0.0 3.0 0.00 0.00 0.00 96 1023.9
20201128104549 36 142 0.0 3.0 0.00 0.00 0.00 96 1024.0
20201128104021 36 142 1.0 3.0 0.00 0.00 0.00 96 1024.0
20201128103522 36 142 0.0 2.0 0.00 0.00 0.00 96 1023.9
20201128103213 36 0 0.0 3.0 0.00 0.00 0.00 96 1024.0
20201128102526 36 0 0.0 3.0 0.00 0.00 0.00 96 1023.9
20201128102022 36 142 1.0 3.0 0.00 0.00 0.00 96 1023.9
20201128101543 36 142 0.0 2.0 0.00 0.00 0.00 96 1023.9
20201128101055 36 142 0.0 2.0 0.00 0.00 0.00 96 1023.8
20201128100524 36 0 0.0 2.0 0.00 0.00 0.00 96 1023.9
20201128100056 36 0 0.0 3.0 0.00 0.00 0.00 96 1023.8
20201128095524 36 142 0.0 3.0 0.00 0.00 0.00 96 1023.7
20201128095024 36 143 1.0 3.0 0.00 0.00 0.00 96 1023.7
20201128094609 36 143 0.0 2.0 0.00 0.00 0.00 96 1023.6
20201128094022 36 143 0.0 4.0 0.00 0.00 0.00 96 1023.5
20201128093523 36 0 1.0 5.0 0.00 0.00 0.00 96 1023.8
20201128093103 36 158 1.0 5.0 0.00 0.00 0.00 96 1023.9
20201128092524 36 167 0.0 4.0 0.00 0.00 0.00 96 1023.8
20201128092025 36 167 1.0 4.0 0.00 0.00 0.00 96 1023.9
20201128091619 36 167 0.0 4.0 0.00 0.00 0.00 96 1023.8
20201128091036 36 172 0.0 4.0 0.00 0.00 0.00 96 1023.8
20201128090535 36 173 1.0 4.0 0.00 0.00 0.00 96 1024.1
20201128090046 36 190 1.0 5.0 0.00 0.00 0.00 96 1023.9
20201128085524 36 223 2.0 7.0 0.00 0.00 0.00 96 1024.0
20201128085023 36 150 2.0 8.0 0.00 0.00 0.00 96 1023.9
20201128084546 36 116 3.0 8.0 0.00 0.00 0.00 96 1023.8
20201128084040 36 172 2.0 7.0 0.00 0.00 0.00 96 1024.1
20201128083525 37 0 2.0 8.0 0.00 0.00 0.00 96 1023.8
20201128083034 37 161 3.0 8.0 0.00 0.00 0.00 96 1023.7
20201128082522 37 140 2.0 8.0 0.00 0.00 0.00 96 1023.7
20201128082034 37 160 2.0 7.0 0.00 0.00 0.00 96 1023.8
20201128081553 37 134 2.0 5.0 0.00 0.00 0.00 96 1023.8
20201128081028 37 166 1.0 5.0 0.00 0.00 0.00 96 1023.7
20201128080525 37 0 1.0 7.0 0.00 0.00 0.00 96 1023.8
20201128080044 37 144 1.0 7.0 0.00 0.00 0.00 96 1023.9
20201128075528 37 0 1.0 8.0 0.00 0.00 0.00 96 1023.9
20201128075024 37 123 3.0 8.0 0.00 0.00 0.00 96 1023.8
20201128074533 37 133 3.0 6.0 0.00 0.00 0.00 96 1023.8
20201128074029 37 113 2.0 4.0 0.00 0.00 0.00 96 1023.7
20201128073526 37 155 1.0 7.0 0.00 0.00 0.00 96 1023.7
20201128073114 37 146 4.0 7.0 0.00 0.00 0.00 96 1023.5
20201128072526 37 130 2.0 6.0 0.00 0.00 0.00 96 1023.6
20201128072028 37 155 1.0 4.0 0.00 0.00 0.00 96 1023.6
20201128071617 37 120 1.0 4.0 0.00 0.00 0.00 96 1023.4
20201128071029 37 164 0.0 3.0 0.00 0.00 0.00 96 1023.2
20201128070532 37 150 1.0 4.0 0.00 0.00 0.00 96 1023.1
20201128070146 37 0 0.0 4.0 0.00 0.00 0.00 96 1023.1
20201128065526 37 148 0.0 5.0 0.00 0.00 0.00 96 1023.2
20201128065025 37 0 1.0 5.0 0.00 0.00 0.00 96 1023.2
20201128064527 37 168 1.0 2.0 0.00 0.00 0.00 96 1023.1
20201128064026 37 0 0.0 4.0 0.00 0.00 0.00 96 1023.2
20201128063527 37 0 0.0 4.0 0.00 0.00 0.00 96 1023.1
20201128063103 37 0 1.0 6.0 0.00 0.00 0.00 96 1023.1
20201128062532 37 157 1.0 6.0 0.00 0.00 0.00 96 1023.0
20201128062036 37 148 2.0 7.0 0.00 0.00 0.00 96 1023.2
20201128061538 37 190 3.0 7.0 0.00 0.00 0.00 96 1023.0
20201128061026 37 216 0.0 3.0 0.00 0.00 0.00 96 1023.1
20201128060525 37 0 0.0 3.0 0.00 0.00 0.00 95 1023.4
20201128060105 37 217 1.0 3.0 0.00 0.00 0.00 95 1023.3
20201128055530 37 0 0.0 0.0 0.00 0.00 0.00 95 1022.9
20201128055027 37 0 0.0 0.0 0.00 0.00 0.00 95 1022.9
20201128054529 37 0 0.0 2.0 0.00 0.00 0.00 95 1022.7
20201128054024 37 0 0.0 4.0 0.00 0.00 0.00 95 1022.8
20201128053525 37 0 0.0 4.0 0.00 0.00 0.00 95 1022.7
20201128053041 37 161 0.0 4.0 0.00 0.00 0.00 95 1022.7
20201128052526 37 183 0.0 2.0 0.00 0.00 0.00 95 1022.8
20201128052028 37 0 0.0 3.0 0.00 0.00 0.00 95 1022.8
20201128051607 37 0 0.0 3.0 0.00 0.00 0.00 95 1022.8
20201128051024 37 183 1.0 3.0 0.00 0.00 0.00 95 1022.9
20201128050537 37 0 0.0 1.0 0.00 0.00 0.00 95 1022.9
20201128050036 37 0 0.0 4.0 0.00 0.00 0.00 95 1022.9
20201128045546 37 230 1.0 4.0 0.00 0.00 0.00 95 1022.9
20201128045040 37 130 1.0 4.0 0.00 0.00 0.00 95 1022.8
20201128044526 37 0 0.0 1.0 0.00 0.00 0.00 95 1022.7
20201128044038 37 0 0.0 2.0 0.00 0.00 0.00 95 1022.5
20201128043533 37 0 0.0 3.0 0.00 0.00 0.00 95 1022.4
20201128043206 37 0 1.0 3.0 0.00 0.00 0.00 95 1022.4
20201128042534 37 0 0.0 3.0 0.00 0.00 0.00 95 1022.3
20201128042027 37 0 0.0 3.0 0.00 0.00 0.00 95 1022.2
20201128041556 37 0 0.0 2.0 0.00 0.00 0.00 95 1022.2
20201128041027 37 142 0.0 2.0 0.00 0.00 0.00 95 1022.1
20201128040522 37 0 0.0 0.0 0.00 0.00 0.00 95 1022.2
20201128040124 37 0 0.0 0.0 0.00 0.00 0.00 95 1022.2
20201128035530 37 0 0.0 0.0 0.00 0.00 0.00 94 1022.2
20201128035030 37 0 0.0 0.0 0.00 0.00 0.00 94 1022.2
20201128034705 37 0 0.0 0.0 0.00 0.00 0.00 94 1022.0
20201128034025 37 0 0.0 0.0 0.00 0.00 0.00 94 1022.1
20201128033537 37 0 0.0 0.0 0.00 0.00 0.00 94 1022.1
20201128033056 37 0 0.0 0.0 0.00 0.00 0.00 94 1022.0
20201128032534 37 0 0.0 0.0 0.00 0.00 0.00 94 1022.0
20201128032032 37 0 0.0 0.0 0.00 0.00 0.00 94 1021.8
20201128031537 37 0 0.0 0.0 0.00 0.00 0.00 94 1021.7
20201128031039 37 0 0.0 0.0 0.00 0.00 0.00 93 1021.9
20201128030524 37 0 0.0 0.0 0.00 0.00 0.00 93 1021.8
20201128030132 37 0 0.0 0.0 0.00 0.00 0.00 93 1021.9
20201128025533 37 0 0.0 0.0 0.00 0.00 0.00 92 1021.7
20201128025036 37 0 0.0 0.0 0.00 0.00 0.00 92 1021.6
20201128024525 37 0 0.0 0.0 0.00 0.00 0.00 92 1021.7
20201128024030 37 0 0.0 0.0 0.00 0.00 0.00 92 1021.6
20201128023528 37 0 0.0 0.0 0.00 0.00 0.00 91 1021.5
20201128023038 37 0 0.0 0.0 0.00 0.00 0.00 91 1021.5
20201128022522 37 0 0.0 0.0 0.00 0.00 0.00 91 1021.4
20201128022022 37 0 0.0 0.0 0.00 0.00 0.00 91 1021.4
20201128021536 37 0 0.0 0.0 0.00 0.00 0.00 90 1021.6
20201128021024 38 0 0.0 0.0 0.00 0.00 0.00 90 1021.7
20201128020522 38 0 0.0 0.0 0.00 0.00 0.00 90 1021.5
20201128020046 38 0 0.0 0.0 0.00 0.00 0.00 90 1021.5
20201128015526 38 0 0.0 0.0 0.00 0.00 0.00 89 1021.4
20201128015024 39 0 0.0 0.0 0.00 0.00 0.00 89 1021.6
20201128014559 39 0 0.0 0.0 0.00 0.00 0.00 89 1021.4
20201128014031 39 0 0.0 0.0 0.00 0.00 0.00 89 1021.5
20201128013522 39 0 0.0 0.0 0.00 0.00 0.00 89 1021.5
20201128013127 40 0 0.0 0.0 0.00 0.00 0.00 89 1021.4
20201128012522 40 0 0.0 0.0 0.00 0.00 0.00 89 1021.5
20201128012026 40 0 0.0 0.0 0.00 0.00 0.00 89 1021.3
20201128011536 40 0 0.0 0.0 0.00 0.00 0.00 89 1021.4
20201128011034 40 0 0.0 0.0 0.00 0.00 0.00 89 1021.3
20201128010521 41 0 0.0 0.0 0.00 0.00 0.00 88 1021.4
20201128010046 41 0 0.0 0.0 0.00 0.00 0.00 88 1021.4
20201128005527 41 0 0.0 0.0 0.00 0.00 0.00 88 1021.4
20201128005030 41 0 0.0 0.0 0.00 0.00 0.00 88 1021.5
20201128004608 42 0 0.0 0.0 0.00 0.00 0.00 88 1021.4
20201128004035 42 0 0.0 0.0 0.00 0.00 0.00 88 1021.4
20201128003540 42 0 0.0 0.0 0.00 0.00 0.00 88 1021.5
20201128003057 42 0 0.0 0.0 0.00 0.00 0.00 88 1021.4
20201128002537 43 0 0.0 0.0 0.00 0.00 0.00 88 1021.5
20201128002034 43 0 0.0 0.0 0.00 0.00 0.00 88 1021.4
20201128001545 43 0 0.0 0.0 0.00 0.00 0.00 88 1021.5
20201128001027 43 0 0.0 0.0 0.00 0.00 0.00 88 1021.5
20201128000522 43 0 0.0 0.0 0.00 0.00 0.00 88 1021.5
20201128000205 43 0 0.0 0.0 0.00 0.00 0.00 88 1021.5
20201127235533 43 0 0.0 0.0 0.00 0.00 0.00 88 1021.4
20201127235032 43 0 0.0 0.0 0.00 0.00 0.00 88 1021.6
20201127234545 43 0 0.0 0.0 0.00 0.00 0.00 88 1021.6
20201127234029 43 0 0.0 0.0 0.00 0.00 0.00 88 1021.7
20201127233523 44 0 0.0 1.0 0.00 0.00 0.00 88 1021.8
20201127233032 44 0 0.0 2.0 0.00 0.00 0.00 87 1021.9
20201127232523 44 0 0.0 3.0 0.00 0.00 0.00 87 1021.8
20201127232023 44 0 0.0 3.0 0.00 0.00 0.00 87 1021.9
20201127231556 44 0 0.0 3.0 0.00 0.00 0.00 86 1021.9
20201127231032 44 0 0.0 3.0 0.00 0.00 0.00 87 1022.0
20201127230526 44 115 1.0 6.0 0.00 0.00 0.00 86 1022.0
20201127230043 44 115 1.0 6.0 0.00 0.00 0.00 86 1022.0
20201127225536 44 115 2.0 4.0 0.00 0.00 0.00 86 1022.0
20201127225027 44 132 1.0 3.0 0.00 0.00 0.00 86 1022.1
20201127224611 44 0 1.0 4.0 0.00 0.00 0.00 86 1022.2
20201127224023 44 142 1.0 8.0 0.00 0.00 0.00 85 1022.2
20201127223533 45 139 3.0 8.0 0.00 0.00 0.00 85 1022.2
20201127223102 45 143 1.0 6.0 0.00 0.00 0.00 84 1022.3
20201127222523 45 0 1.0 7.0 0.00 0.00 0.00 83 1022.3
20201127222027 45 174 4.0 7.0 0.00 0.00 0.00 84 1022.4
20201127221546 45 0 2.0 6.0 0.00 0.00 0.00 84 1022.4
20201127221032 45 0 2.0 6.0 0.00 0.00 0.00 85 1022.5
20201127220522 45 156 3.0 6.0 0.00 0.00 0.00 84 1022.5
20201127220137 45 175 1.0 8.0 0.00 0.00 0.00 83 1022.6
20201127215522 45 178 3.0 8.0 0.00 0.00 0.00 84 1022.6
20201127215037 46 0 0.0 5.0 0.00 0.00 0.00 83 1022.6
20201127214529 46 0 1.0 5.0 0.00 0.00 0.00 83 1022.6
20201127214026 46 0 2.0 5.0 0.00 0.00 0.00 82 1022.7
20201127213522 46 190 0.0 4.0 0.00 0.00 0.00 84 1022.8
20201127213050 45 0 2.0 7.0 0.00 0.00 0.00 85 1022.7
20201127212523 45 0 0.0 7.0 0.00 0.00 0.00 84 1022.9
20201127212029 45 170 0.0 5.0 0.00 0.00 0.00 85 1022.9
20201127211527 45 0 1.0 6.0 0.00 0.00 0.00 86 1022.8
20201127211023 44 165 2.0 6.0 0.00 0.00 0.00 87 1023.2
20201127210532 45 153 0.0 4.0 0.00 0.00 0.00 86 1023.1
20201127210029 44 0 0.0 4.0 0.00 0.00 0.00 86 1023.2
20201127205535 44 0 0.0 4.0 0.00 0.00 0.00 88 1023.4
20201127205029 44 119 0.0 4.0 0.00 0.00 0.00 87 1023.4
20201127204603 44 0 0.0 4.0 0.00 0.00 0.00 87 1023.6
20201127204022 44 0 0.0 4.0 0.00 0.00 0.00 88 1023.6
20201127203542 44 219 0.0 4.0 0.00 0.00 0.00 88 1023.8
20201127203043 44 157 0.0 2.0 0.00 0.00 0.00 87 1023.7
20201127202523 43 217 0.0 3.0 0.00 0.00 0.00 90 1023.8
20201127202030 42 265 0.0 3.0 0.00 0.00 0.00 92 1023.9
20201127201547 42 270 0.0 3.0 0.00 0.00 0.00 95 1024.0
20201127201032 41 217 0.0 2.0 0.00 0.00 0.00 95 1024.0
20201127200525 41 221 0.0 3.0 0.00 0.00 0.00 95 1024.2
20201127200113 41 0 0.0 3.0 0.00 0.00 0.00 96 1024.3
20201127195525 41 0 1.0 4.0 0.00 0.00 0.00 95 1024.3
20201127195032 41 252 1.0 5.0 0.00 0.00 0.00 96 1024.2
20201127194619 40 263 2.0 5.0 0.00 0.00 0.00 96 1024.5
20201127194029 40 262 1.0 4.0 0.00 0.00 0.00 96 1024.6
20201127193525 40 272 1.0 3.0 0.00 0.00 0.00 96 1024.6
20201127193055 40 249 1.0 4.0 0.00 0.00 0.00 96 1024.6
20201127192527 40 238 2.0 5.0 0.00 0.00 0.00 97 1024.6
20201127192022 40 235 2.0 5.0 0.00 0.00 0.00 97 1024.7
20201127191557 39 259 1.0 4.0 0.00 0.00 0.00 96 1024.7
20201127191051 39 257 0.0 4.0 0.00 0.00 0.00 96 1024.9
20201127190522 39 240 2.0 4.0 0.00 0.00 0.00 97 1024.9
20201127190111 39 262 2.0 3.0 0.00 0.00 0.00 96 1024.9
20201127185531 39 262 1.0 4.0 0.00 0.00 0.00 96 1025.0
20201127185039 39 0 2.0 4.0 0.00 0.00 0.00 96 1025.2
20201127184609 39 0 0.0 3.0 0.00 0.00 0.00 96 1025.3
20201127184027 39 263 1.0 3.0 0.00 0.00 0.00 97 1025.3
20201127183548 38 261 1.0 3.0 0.00 0.00 0.00 96 1025.2
20201127183043 38 0 0.0 2.0 0.00 0.00 0.00 97 1025.4
20201127182524 38 0 0.0 0.0 0.00 0.00 0.00 96 1025.4
20201127182030 37 0 0.0 0.0 0.00 0.00 0.00 97 1025.5
20201127181540 37 0 0.0 0.0 0.00 0.00 0.00 96 1025.6
20201127181024 37 0 0.0 0.0 0.00 0.00 0.00 96 1025.6
20201127180523 37 0 0.0 0.0 0.00 0.00 0.00 96 1025.6
20201127180053 36 0 0.0 0.0 0.00 0.00 0.00 96 1025.7
20201127175526 36 0 0.0 0.0 0.00 0.00 0.00 96 1025.7
20201127175025 36 0 0.0 0.0 0.00 0.00 0.00 96 1025.8
20201127174539 36 0 0.0 0.0 0.00 0.00 0.00 96 1025.8
20201127174025 36 0 0.0 0.0 0.00 0.00 0.00 96 1025.7
20201127173525 35 0 0.0 0.0 0.00 0.00 0.00 96 1025.8
20201127173102 35 0 0.0 0.0 0.00 0.00 0.00 96 1025.8
20201127172532 35 0 0.0 0.0 0.00 0.00 0.00 96 1025.8
20201127172026 35 0 0.0 0.0 0.00 0.00 0.00 96 1025.8
20201127171555 35 0 0.0 0.0 0.00 0.00 0.00 95 1025.8
20201127171026 35 0 0.0 0.0 0.00 0.00 0.00 95 1025.9
20201127170525 35 0 0.0 0.0 0.00 0.00 0.00 95 1025.9
20201127170131 34 0 0.0 0.0 0.00 0.00 0.00 95 1025.8
20201127165538 34 0 0.0 0.0 0.00 0.00 0.00 95 1025.8
20201127165023 34 0 0.0 0.0 0.00 0.00 0.00 95 1025.9
20201127164645 34 0 0.0 0.0 0.00 0.00 0.00 95 1026.1
20201127164022 34 0 0.0 0.0 0.00 0.00 0.00 95 1026.2
20201127163525 34 0 0.0 0.0 0.00 0.00 0.00 95 1026.1
20201127163051 34 0 0.0 0.0 0.00 0.00 0.00 95 1026.1